Rochester/St. Mary\'s Hospita, MN
on Saturday, August 16, 2014

Saturday
Previous Day Next Day
Daily Summary
 ActualAverage (KRST)Record (KRST)
Temperature
Mean Temperature °F °F  
Max Temperature 83°F 80°F 99°F (1988)
Min Temperature 63°F 58°F 39°F (1933)
Cooling Degree Days 8    
Growing Degree Days22 (Base °F )  
Moisture
Dew Point 64°F   
Average Humidity 76    
Maximum Humidity 93    
Minimum Humidity 53    
Precipitation
Precipitation 0.00 in in in ()
Wind
Wind Speed 5 mph   
Max Wind Speed 9 mph   
Max Gust Speed mph   
Visibility 10 miles   
Events     
Averages and records for this station are not official NWS values.
Key: T is trace of precipitation, MM is missing value
Source: NWS Daily Summary
Seasonal Weather Averages
Time(CDT)TemperatureDew PointHumidity Pressure Visibility Wind DirectionWind SpeedGust SpeedPrecipitationEvents Conditions
12:12 AM 66.7°F 61.9°F 84% 29.91 in 10.0 miles South 6.9 mph - N/A   Clear
12:31 AM 66.2°F 62.1°F 86% 29.90 in 10.0 miles South 6.9 mph - N/A   Clear
12:52 AM 65.8°F 62.2°F 88% 29.89 in 10.0 miles South 8.1 mph - N/A   Clear
1:12 AM 65.5°F 62.1°F 89% 29.89 in 10.0 miles South 5.8 mph - N/A   Clear
1:31 AM 65.5°F 61.7°F 88% 29.89 in 10.0 miles South 8.1 mph - N/A   Clear
1:52 AM 64.9°F 61.2°F 88% 29.88 in 10.0 miles SSE 5.8 mph - N/A   Clear
2:12 AM 64.8°F 60.8°F 87% 29.88 in 10.0 miles South 8.1 mph - N/A   Clear
2:32 AM 64.6°F 60.8°F 88% 29.88 in 10.0 miles SSE 5.8 mph - N/A   Clear
2:52 AM 64.4°F 60.8°F 88% 29.88 in 10.0 miles South 5.8 mph - N/A   Clear
3:12 AM 64.4°F 61.0°F 89% 29.89 in 10.0 miles SSE 3.5 mph - N/A   Clear
3:32 AM 63.9°F 61.2°F 91% 29.89 in 10.0 miles South 5.8 mph - N/A   Clear
3:52 AM 63.9°F 61.3°F 91% 29.89 in 10.0 miles South 3.5 mph - N/A   Clear
4:11 AM 63.9°F 61.7°F 93% 29.89 in 10.0 miles Calm Calm - N/A   Mostly Cloudy
4:32 AM 64.4°F 62.1°F 92% 29.90 in 10.0 miles South 3.5 mph - N/A   Overcast
4:52 AM 64.4°F 62.1°F 92% 29.90 in 10.0 miles South 3.5 mph - N/A   Overcast
5:11 AM 64.6°F 62.2°F 92% 29.90 in 10.0 miles Calm Calm - N/A   Overcast
5:32 AM 64.4°F 62.2°F 93% 29.90 in 10.0 miles SE 3.5 mph - N/A   Overcast
5:52 AM 64.4°F 62.2°F 93% 29.91 in 10.0 miles South 3.5 mph - N/A   Overcast
6:11 AM 64.6°F 62.4°F 93% 29.91 in 10.0 miles South 3.5 mph - N/A   Overcast
6:32 AM 65.3°F 62.8°F 92% 29.92 in 7.0 miles SW 6.9 mph - N/A   Overcast
6:52 AM 65.3°F 62.8°F 92% 29.92 in 7.0 miles WSW 3.5 mph - N/A   Overcast
7:11 AM 65.5°F 63.1°F 92% 29.92 in 7.0 miles SW 6.9 mph - N/A   Overcast
7:32 AM 65.7°F 63.3°F 92% 29.93 in 7.0 miles SW 5.8 mph - N/A   Overcast
7:52 AM 65.7°F 63.5°F 93% 29.93 in 5.0 miles WSW 4.6 mph - N/A   Overcast
8:11 AM 65.8°F 63.5°F 92% 29.93 in 5.0 miles SW 5.8 mph - N/A   Overcast
8:32 AM 66.0°F 63.5°F 92% 29.93 in 5.0 miles WSW 5.8 mph - N/A   Overcast
8:52 AM 66.2°F 63.7°F 92% 29.92 in 5.0 miles WSW 5.8 mph - N/A   Overcast
9:11 AM 66.6°F 63.7°F 90% 29.92 in 7.0 miles WSW 4.6 mph - N/A   Overcast
9:32 AM 67.1°F 63.7°F 89% 29.91 in 7.0 miles Calm Calm - N/A   Overcast
9:52 AM 67.8°F 63.9°F 87% 29.92 in 10.0 miles West 3.5 mph - N/A   Overcast
10:11 AM 68.4°F 64.2°F 87% 29.92 in 10.0 miles Calm Calm - N/A   Overcast
10:32 AM 69.1°F 64.6°F 86% 29.92 in 10.0 miles Calm Calm - N/A   Overcast
10:52 AM 70.7°F 64.6°F 81% 29.92 in 10.0 miles Calm Calm - N/A   Overcast
11:11 AM 72.9°F 64.0°F 74% 29.92 in 10.0 miles Calm Calm - N/A   Mostly Cloudy
11:32 AM 73.2°F 63.7°F 72% 29.92 in 10.0 miles Calm Calm - N/A   Mostly Cloudy
11:52 AM 74.1°F 63.7°F 70% 29.92 in 10.0 miles Calm Calm - N/A   Mostly Cloudy
12:12 PM 75.4°F 63.9°F 67% 29.92 in 10.0 miles Calm Calm - N/A   Mostly Cloudy
12:32 PM 75.9°F 63.7°F 66% 29.91 in 10.0 miles WSW 4.6 mph - N/A   Mostly Cloudy
12:51 PM 77.5°F 64.0°F 63% 29.91 in 10.0 miles Calm Calm - N/A   Overcast
1:12 PM 78.6°F 63.7°F 60% 29.90 in 10.0 miles WSW 3.5 mph - N/A   Scattered Clouds
1:32 PM 79.0°F 63.7°F 59% 29.90 in 10.0 miles South 3.5 mph - N/A   Mostly Cloudy
1:51 PM 80.1°F 64.0°F 58% 29.90 in 10.0 miles South 4.6 mph - N/A   Scattered Clouds
2:12 PM 80.6°F 63.9°F 57% 29.90 in 10.0 miles Calm Calm - N/A   Clear
2:32 PM 81.5°F 63.9°F 55% 29.90 in 10.0 miles South 4.6 mph - N/A   Scattered Clouds
2:51 PM 80.4°F 64.0°F 57% 29.89 in 10.0 miles Calm Calm - N/A   Mostly Cloudy
3:12 PM 81.5°F 64.0°F 55% 29.89 in 10.0 miles Calm Calm - N/A   Overcast
3:31 PM 82.2°F 63.7°F 53% 29.89 in 10.0 miles WSW 4.6 mph - N/A   Mostly Cloudy
3:52 PM 80.6°F 64.0°F 57% 29.89 in 10.0 miles West 3.5 mph - N/A   Scattered Clouds
4:12 PM 81.5°F 64.4°F 56% 29.89 in 10.0 miles NNW 3.5 mph - N/A   Mostly Cloudy
4:31 PM 82.0°F 64.4°F 55% 29.88 in 10.0 miles West 8.1 mph - N/A   Mostly Cloudy
4:52 PM 81.3°F 64.2°F 56% 29.88 in 10.0 miles WNW 8.1 mph - N/A   Scattered Clouds
5:12 PM 81.1°F 64.8°F 57% 29.88 in 10.0 miles WNW 9.2 mph - N/A   Clear
5:31 PM 81.1°F 64.6°F 57% 29.89 in 10.0 miles WNW 5.8 mph - N/A   Clear
5:52 PM 80.6°F 64.8°F 58% 29.89 in 10.0 miles West 5.8 mph - N/A   Clear
6:12 PM 80.2°F 64.6°F 59% 29.89 in 10.0 miles WNW 5.8 mph - N/A   Clear
6:31 PM 81.7°F 64.4°F 56% 29.89 in 10.0 miles Calm Calm - N/A   Scattered Clouds
6:52 PM 81.0°F 65.3°F 59% 29.89 in 10.0 miles Calm Calm - N/A   Mostly Cloudy
7:12 PM 79.9°F 65.1°F 61% 29.89 in 10.0 miles ESE 3.5 mph - N/A   Mostly Cloudy
7:31 PM 79.7°F 66.2°F 63% 29.90 in 10.0 miles ESE 5.8 mph - N/A   Mostly Cloudy
7:52 PM 78.8°F 66.2°F 65% 29.90 in 10.0 miles ESE 4.6 mph - N/A   Scattered Clouds
8:12 PM 78.3°F 66.2°F 66% 29.90 in 10.0 miles ESE 3.5 mph - N/A   Mostly Cloudy
8:31 PM 77.9°F 66.2°F 67% 29.90 in 10.0 miles ESE 4.6 mph - N/A   Overcast
8:52 PM 77.9°F 66.2°F 67% 29.91 in 10.0 miles Calm Calm - N/A   Overcast
9:12 PM 77.2°F 66.4°F 69% 29.92 in 10.0 miles ESE 3.5 mph - N/A   Mostly Cloudy
9:31 PM 77.0°F 66.4°F 70% 29.92 in 10.0 miles ESE 5.8 mph - N/A   Mostly Cloudy
9:52 PM 76.1°F 66.2°F 71% 29.92 in 10.0 miles Calm Calm - N/A   Mostly Cloudy
10:12 PM 75.6°F 65.7°F 71% 29.93 in 10.0 miles ESE 5.8 mph - N/A   Overcast
10:31 PM 74.8°F 66.2°F 74% 29.93 in 10.0 miles SE 4.6 mph - N/A   Overcast
10:52 PM 75.2°F 65.7°F 72% 29.93 in 10.0 miles Calm Calm - N/A   Overcast
11:12 PM 75.2°F 65.7°F 72% 29.94 in 10.0 miles Calm Calm - N/A   Overcast
11:31 PM 74.5°F 66.0°F 75% 29.94 in 10.0 miles SE 4.6 mph - N/A   Mostly Cloudy
11:52 PM 73.9°F 66.2°F 77% 29.94 in 10.0 miles Calm Calm - N/A   Scattered Clouds
Astronomy
Sunrise:06:14 AM (CDT) Moon Rise:11:40 PM (CDT)8/16
Sunset:08:12 PM (CDT) Moon Set:01:16 PM (CDT)8/16
Moon Phase
Aug. 16 Aug. 17 Aug. 25 Sep. 02 Sep. 09

Copyright © 2017 The Weather Underground, Inc.